{"data":{"norad_id":53053,"intl_designator":"2022-077L","name":"STARLINK-4337","alt_names":[],"object_type":"PAYLOAD","status":"ACTIVE","operator":null,"country":"US","launch_date":"2022-07-11","launch_site_code":"AFWTR","launch_vehicle":null,"mission":null,"orbit_class":"UNKNOWN","rcs_meters":null,"size_class":null,"mass_kg":null,"dimensions":null,"purposes":["comms"],"wikipedia_slug":null,"has_3d_model":false,"image_url":null,"decayed_at":null,"tle_current":{"epoch":"2026-05-25T01:27:14.868000Z","epoch_age_seconds":63806,"freshness":"FRESH","line1":"1 53053U 22077L   26145.06058875 -.00002564  00000+0 -17363-3 0  9992","line2":"2 53053  97.4487 324.9387 0002279  72.7806 287.3670 15.05664395212397","mean_motion":15.05664395,"eccentricity":0.0002279,"inclination_deg":97.4487,"raan_deg":324.9387,"arg_perigee_deg":72.7806,"mean_anomaly_deg":287.367,"bstar":-0.00017363,"rev_number":21239,"period_min":95.638842545652,"perigee_km":547.88819820414,"apogee_km":551.04580010695,"semimajor_km":6927.6039991555,"source":"CELESTRAK","updated_at":"2026-05-25T13:38:17.287643Z"}}}